This is the latest recevied weather packets stored in our database for station/object W5ZYX. If no packets are shown the sender has not sent any weather packets the latest 10 day(s).
| Time | Temp. | Humidity | Pressure | Rain* | Wind** | Luminosity | Snow |
|---|---|---|---|---|---|---|---|
| 1778090454 | - | - | 1011.9 hPa | 0 mm | - | - | - |
| 1778090137 | - | - | 1012.1 hPa | 0 mm | - | - | - |
| 1778089839 | - | - | 1012.1 hPa | 0 mm | - | - | - |
| 1778089561 | - | - | 1012.3 hPa | 0 mm | - | - | - |
| 1778089239 | - | - | 1012.1 hPa | 0 mm | - | - | - |
| 1778088937 | 17.78° C | 87% | 1012.7 hPa | 0 mm | - | - | - |
| 1778088683 | 17.78° C | 87% | 1012.9 hPa | 0 mm | - | - | - |
| 1778088340 | 17.78° C | 87% | 1013.2 hPa | 0 mm | - | - | - |
| 1778088039 | 18.33° C | 89% | 1013.2 hPa | 0 mm | - | - | - |
| 1778087758 | 18.33° C | 89% | 1013.2 hPa | 0 mm | - | - | - |
| 1778087440 | 18.33° C | 88% | 1013.3 hPa | 0 mm | - | - | - |
| 1778087140 | 18.89° C | 87% | 1013.5 hPa | 0 mm | - | - | - |
| 1778086866 | 19.44° C | 87% | 1013.5 hPa | 0 mm | - | - | - |
| 1778086535 | 20° C | 87% | 1013.3 hPa | 0 mm | - | - | - |
| 1778086236 | 20.56° C | 85% | 1013.3 hPa | 0 mm | - | - | - |
| 1778085951 | 21.11° C | 84% | 1013.2 hPa | 0 mm | - | - | - |
| 1778085639 | 22.78° C | 81% | 1012.9 hPa | 0 mm | - | - | - |
| 1778085335 | 25° C | 79% | 1012.8 hPa | 0 mm | - | - | - |
| 1778085058 | 26.11° C | 85% | 1012.5 hPa | 0 mm | - | - | - |
| 1778084738 | 26.11° C | 85% | 1012.3 hPa | 0 mm | - | - | - |
| 1778084441 | 26.67° C | 86% | 1012.3 hPa | 0 mm | - | - | - |
| 1778084146 | 26.11° C | 86% | 1012.2 hPa | 0 mm | - | - | - |
| 1778083841 | 26.11° C | 85% | 1012.2 hPa | 0 mm | - | - | - |
| 1778083539 | 26.11° C | 86% | 1012 hPa | 0 mm | - | - | - |
| 1778083253 | 26.11° C | 86% | 1011.7 hPa | 0 mm | - | - | - |
* Rain latest hour (hover to see other rain measurements)
** Current wind speed in m/s (hover to see current wind gust speed)